Weather History for Springfield, VT

Change the Weather History Date:

Sunday, October 2, 2011

  Actual Average Record
Temperature  
Mean Temperature 53 °F 52 °F  
Max Temperature 60 °F 64 °F 79 °F (2002)
Min Temperature 46 °F 40 °F 28 °F (1998)
Degree Days  
Heating Degree Days 12 13  
Month to date heating degree days 23 26  
Since 1 July heating degree days 126 278  
Cooling Degree Days 0 0  
Month to date cooling degree days 0 0  
Year to date cooling degree days 589 344  
Growing Degree Days 2 (Base 50)    
Moisture  
Dew Point 50 °F    
Average Humidity 87    
Maximum Humidity 93    
Minimum Humidity 80    
Precipitation  
Precipitation 0.02 in 0.17 in 0.16 in (2008)
Month to date precipitation 0.34 0.34  
Year to date precipitation 44.42 32.47  
Sea Level Pressure  
Sea Level Pressure 29.89 in    
Wind  
Wind Speed 1 mph (NE)    
Max Wind Speed 8 mph    
Max Gust Speed 28 mph    
Visibility 9 miles    
Events Rain    
T = Trace of Precipitation, MM = Missing Value Source: NWS Daily Summary

Daily Weather History Graph

Daily Weather History Graph

Search for Another Location

Airport:

Trip Planner

Search our weather history database for the weather conditions in past years. The results will help you decide how hot, cold, wet, or windy it might be!

Date:

Astronomy

Oct. 02, 2011 Rise Set
Actual Time 6:48 AM EDT 6:29 PM EDT
Civil Twilight 6:19 AM EDT 6:58 PM EDT
Nautical Twilight 5:46 AM EDT 7:31 PM EDT
Astronomical Twilight 5:13 AM EDT 8:04 PM EDT
Moon 1:02 PM EDT (10/2) 10:15 PM EDT (10/2)
Length of Visible Light 12h 38m
Length of Day
11h 41m
Waxing Crescent, 34% of the Moon is Illuminated
Oct 2
Waxing Crescent
Oct 3
First Quarter
Oct 11
Full
Oct 19
Last Quarter
Oct 26
New

Hourly Weather History & Observations

Time (EDT) Temp. Windchill Dew Point Humidity Pressure Visibility Wind Dir Wind Speed Gust Speed Precip Events Conditions
12:06 AM 46.4 °F 44.3 °F 42.8 °F 87% 29.86 in 10.0 mi Variable 4.6 mph - 0.00 in   Overcast
12:54 AM 46.0 °F 43.9 °F 42.1 °F 86% 29.86 in 10.0 mi NE 4.6 mph - 0.00 in   Overcast
1:54 AM 46.9 °F - 42.1 °F 83% 29.87 in 10.0 mi NE 5.8 mph - 0.00 in   Overcast
2:54 AM 46.9 °F - 43.0 °F 86% 29.87 in 10.0 mi NE 5.8 mph - N/A   Overcast
3:03 AM 46.4 °F 44.3 °F 42.8 °F 87% 29.86 in 10.0 mi Variable 4.6 mph - N/A   Overcast
3:54 AM 46.9 °F - 43.0 °F 86% 29.88 in 10.0 mi NE 3.5 mph - N/A   Overcast
4:54 AM 46.9 °F - 45.0 °F 93% 29.88 in 9.0 mi Calm Calm - N/A   Overcast
5:54 AM 46.9 °F - 45.0 °F 93% 29.88 in 6.0 mi Calm Calm - N/A   Overcast
6:54 AM 48.0 °F - 46.0 °F 93% 29.90 in 5.0 mi Calm Calm - N/A   Overcast
7:02 AM 48.2 °F - 46.4 °F 93% 29.89 in 4.0 mi Calm Calm - N/A   Overcast
7:27 AM 48.2 °F - 46.4 °F 93% 29.89 in 5.0 mi ENE 3.5 mph - N/A   Overcast
7:54 AM 48.0 °F - 46.0 °F 93% 29.91 in 5.0 mi Calm Calm - 0.01 in   Overcast
8:16 AM 48.2 °F - 46.4 °F 93% 29.90 in 3.0 mi Calm Calm - N/A   Overcast
8:39 AM 50.0 °F - 46.4 °F 87% 29.89 in 9.0 mi ENE 3.5 mph - N/A   Overcast
8:54 AM 50.0 °F - 46.9 °F 89% 29.91 in 10.0 mi Calm Calm - N/A   Overcast
9:54 AM 51.1 °F - 48.0 °F 89% 29.91 in 10.0 mi Calm Calm - N/A   Overcast
10:18 AM 51.8 °F - 48.2 °F 88% 29.90 in 10.0 mi Calm Calm - N/A   Overcast
10:54 AM 53.1 °F - 48.9 °F 86% 29.91 in 10.0 mi Calm Calm - N/A   Overcast
11:54 AM 55.0 °F - 51.1 °F 86% 29.91 in 10.0 mi Calm Calm - N/A   Overcast
12:02 PM 55.4 °F - 51.8 °F 88% 29.90 in 10.0 mi Calm Calm - N/A   Overcast
12:54 PM 55.9 °F - 52.0 °F 87% 29.90 in 10.0 mi Calm Calm - N/A   Overcast
1:43 PM 59.0 °F - 53.6 °F 82% 29.88 in 10.0 mi Calm Calm - N/A   Overcast
2:54 PM 59.0 °F - 53.1 °F 81% 29.88 in 10.0 mi NNE 4.6 mph - N/A   Overcast
3:54 PM 59.0 °F - 54.0 °F 83% 29.87 in 10.0 mi Variable 4.6 mph - N/A   Overcast
4:07 PM 59.0 °F - 53.6 °F 82% 29.86 in 10.0 mi Calm Calm - N/A   Overcast
4:29 PM 59.0 °F - 53.6 °F 82% 29.87 in 10.0 mi NE 3.5 mph - N/A   Overcast
4:54 PM 59.0 °F - 54.0 °F 83% 29.89 in 10.0 mi NE 3.5 mph - N/A   Overcast
5:14 PM 59.0 °F - 53.6 °F 82% 29.88 in 10.0 mi Calm Calm - N/A   Overcast
5:31 PM 59.0 °F - 53.6 °F 82% 29.87 in 10.0 mi Calm Calm - N/A   Overcast
6:54 PM 57.9 °F - 55.0 °F 90% 29.90 in 10.0 mi ENE 3.5 mph - N/A   Overcast
7:54 PM 57.9 °F - 55.0 °F 90% 29.92 in 5.0 mi Calm Calm - 0.00 in Rain Light Rain
8:54 PM 57.9 °F - 54.0 °F 87% 29.91 in 10.0 mi Calm Calm - 0.00 in   Overcast
9:21 PM 57.2 °F - 55.4 °F 94% 29.90 in 10.0 mi Calm Calm - N/A   Overcast
9:54 PM 57.0 °F - 55.0 °F 93% 29.92 in 10.0 mi Calm Calm - N/A   Overcast
10:35 PM 57.2 °F - 55.4 °F 94% 29.92 in 10.0 mi Calm Calm - N/A   Overcast
10:54 PM 57.0 °F - 55.0 °F 93% 29.92 in 10.0 mi Calm Calm - N/A   Overcast
11:32 PM 57.2 °F - 55.4 °F 94% 29.92 in 5.0 mi Calm Calm - N/A   Overcast
11:54 PM 57.0 °F - 55.0 °F 93% 29.93 in 7.0 mi Calm Calm - 0.00 in Rain Light Rain